{"data":{"norad_id":48555,"epoch":"2026-09-19T17:56:25.008288Z","epoch_age_seconds":76207,"freshness":"FRESH","line1":"1 48555U 21041C   26262.74751167 -.00001609  00000+0 -40100-4 0  9997","line2":"2 48555  53.1576 325.8318 0001548  57.4834 302.6317 15.31699917294687","mean_motion":15.31699917,"eccentricity":0.0001548,"inclination_deg":53.1576,"raan_deg":325.8318,"arg_perigee_deg":57.4834,"mean_anomaly_deg":302.6317,"bstar":-4.01e-5,"rev_number":29468,"period_min":94.013193055491,"perigee_km":469.68003644718,"apogee_km":471.8004488415,"semimajor_km":6848.8772426443,"source":"CELESTRAK","updated_at":"2026-09-20T09:00:39.132485Z"}}